Location: Oshawa
(43.9000°N, 78.8670°W)
Time: 22:08:59
(UTC-04:00)

Cosmos 1805 Rocket - Visible Passes

Search period start: 28 May 2015 00:00
Search period end: 07 June 2015 00:00
Orbit: 606 x 632 km, 82.5° (Epoch: 27 May)

Date Brightness Start Highest point End Pass type
(mag) Time Alt. Az. Time Alt. Az. Time Alt. Az.
28 May 3.9 01:09:17 54° ENE 01:09:17 54° ENE 01:13:14 10° NNE visible
28 May 5.7 02:46:26 13° W 02:47:20 14° WNW 02:49:32 10° NW visible
29 May 3.5 01:26:22 76° NW 01:26:22 76° NW 01:30:35 10° N visible
30 May 5.5 00:06:19 18° E 00:06:19 18° E 00:08:57 10° NE visible
30 May 4.3 01:43:27 41° W 01:43:35 41° WNW 01:47:42 10° N visible
31 May 4.7 00:23:23 31° E 00:23:23 31° E 00:26:58 10° NNE visible
31 May 5.2 02:00:31 23° W 02:01:04 23° WNW 02:04:30 10° NNW visible
01 Jun 3.7 00:40:26 59° E 00:40:26 59° E 00:44:35 10° NNE visible
01 Jun 5.8 02:17:34 12° W 02:18:40 13° WNW 02:20:43 10° NW visible
02 Jun 3.5 00:57:28 73° W 00:57:33 74° W 01:01:54 10° N visible
02 Jun 5.3 23:37:21 18° E 23:37:21 18° E 23:40:21 10° NE visible
03 Jun 4.4 01:14:29 38° W 01:14:55 39° WNW 01:19:00 10° N visible
03 Jun 4.5 23:54:22 33° E 23:54:24 33° E 23:58:20 10° NNE visible
04 Jun 5.3 01:31:29 21° W 01:32:24 22° WNW 01:35:47 10° NNW visible
05 Jun 3.5 00:11:21 61° ESE 00:11:35 62° E 00:15:54 10° NNE visible
05 Jun 6.0 01:48:29 11° W 01:50:01 13° WNW 01:51:54 10° NW visible
05 Jun 5.8 22:51:12 10° E 22:51:32 10° E 22:52:31 10° ENE visible
06 Jun 3.6 00:28:20 62° SW 00:28:52 70° W 00:33:12 10° N visible
06 Jun 5.1 23:08:09 19° E 23:08:36 19° E 23:11:45 10° NE visible
